Zurück zum Katalog

UTE-GALAPAGOS

AktivAmateurfunkSSO
NORAD 67279·PAYLOAD·🇪🇨 Ecuador
Dieser Satellitenname wurde noch nicht durch offizielle Quellen bestätigt.

Gestartet Dec 28, 2025 von Vostochny Cosmodrome

Loading…

Nächste Überflüge (nächste 24 Stunden)

TLE

AktuellSource: Space-Track

Epoche: Sep 14, 2026, 11:24 UTC

1 67279U 25313AH  26257.47556711  .00005468  00000-0  22907-3 0  9999
2 67279  97.3850 330.7088 0014915  54.6027 305.6601 15.23844787 39549

Verfolge UTE-GALAPAGOS in Echtzeit mit AllMySat

Download on the App Store